Location: Al Mulaqqa?ah
(24.1833°N, 32.8833°E)
Time: 03:52:06
(UTC+00:00)

USA 238 DEB - Pass Details

Date: 26 September 2021
Orbit: 980 x 1232 km, 63.4° (Epoch: 11 October)

Event Time Altitude Azimuth Distance (km) Brightness Sun altitude
Rises 16:50:50 0° 199° (SSW) 3,665 6.7 -16.8°
Reaches altitude 10° 16:53:24 10° 197° (SSW) 2,720 6.0 -17.4°
Maximum altitude 16:59:42 70° 114° (ESE) 1,049 3.4 -18.8°
Drops below altitude 10° 17:06:12 10° 32° (NNE) 2,807 5.7 -20.3°
Sets 17:08:52 0° 30° (NNE) 3,792 6.4 -20.9°
